www.pogodaiklimat.ru

Погода и климат >> Архив погоды >> Тунис >> Тунис


АРХИВ ПОГОДЫ в Тунисе

Время (UTC), дата Ветер
(напр.,м/с)
 
Видим.   Явления Облачность Т
(С)
Тd
(С)
f
(%)
Тe
(С)
Тes
(С)
Комфортность P
(гПа)
Po
(гПа)
Тmin
(С)
Tmax
(С)
R
(мм)
R24
(мм)
S
(см)
03 14.09 В 2-2
{4}
10 км н/о +23.4 +20.9 86 +31 +31 очень
душно
1022.7 1021.8
06 14.09 В 2 10 км 1/1 1000 м
[Cu hum]
+23.5 +21.8 90 +30 +31 очень
душно
1022.7 1021.8 +20.8
09 14.09 10 км н/о +27.1 +20.9 69 +34 +42 очень
душно
1024.1 1023.2
12 14.09 В 4 10 км 4/4 800 м
[Cu med, cong]
+30.5 +17.9 47 +35 +41 очень
душно
1022.7 1021.8
15 14.09 СВ 5 10 км 4/4 800 м
[Cu med, cong]
+29.6 +20.7 59 +37 +38 очень
душно
1021.4 1020.5
18 14.09 В 3 10 км 3/3 800 м
[Cu med, cong]
+27.7 +20.0 63 +34 +34 очень
душно
1021.9 1021.0 +31.0
21 14.09 В 3 10 км 3/3 800 м
[Cu med, cong]
+25.7 +21.1 76 +32 +32 очень
душно
1022.7 1021.8
00 15.09 В 2 10 км 3/3 800 м
[Cu med, cong]
+24.7 +21.2 81 +31 +31 очень
душно
1022.1 1021.2
03 15.09 В 2 10 км 3/3 800 м
[Cu med, cong]
+24.1 +21.4 85 +31 +31 очень
душно
1021.6 1020.7
06 15.09 В 2 10 км 1/1 1000 м
[Cu hum]
+24.2 +21.1 83 +31 +31 очень
душно
1023.1 1022.2 +22.5
09 15.09 ЮВ 1 10 км 4/1 1000 м
[Cu med, cong Ac lent Ci sp]
+27.8 +19.1 59 +33 +42 очень
душно
1023.2 1022.3
12 15.09 СВ 4 10 км 4/1 1000 м
[Cu med, cong Ac lent Ci sp]
+30.2 +18.6 50 +35 +42 очень
душно
1021.0 1020.1
15 15.09 СВ 4 10 км 3/1 1000 м
[Cu med, cong Ci sp]
+29.8 +20.4 57 +37 +40 очень
душно
1019.6 1018.7
18 15.09 ЮВ 4 10 км 3/1 1000 м
[Cu med, cong Ci sp]
+27.4 +19.5 62 +33 +33 очень
душно
1019.2 1018.3 +30.8
21 15.09 В 3 10 км 3/1 1000 м
[Cu med, cong Ci sp]
+26.2 +20.1 69 +32 +32 очень
душно
1019.5 1018.6
00 16.09 Ю 4 10 км 3/1 1000 м
[Cu med, cong Ci sp]
+25.6 +16.7 58 +29 +29 душно 1018.5 1017.6
03 16.09 Ю 4 10 км 3/1 1000 м
[Cu med, cong Ci sp]
+24.7 +17.7 65 +29 +29 душно 1017.6 1016.7
06 16.09 ЮВ 3 10 км 1/0
[Ci sp]
+24.8 +18.3 67 +29 +30 душно 1017.7 1016.8 +24.0
09 16.09 Ю 2 10 км 5/0
[Ci sp]
+29.4 +18.2 51 +34 +43 очень
душно
1018.2 1017.3
12 16.09 В 3 10 км 5/1 1000 м
[Cu med, cong Ci sp]
+32.2 +18.4 44 +37 +47 очень
душно
1016.8 1015.9
15 16.09 В 4 10 км 5/1 1000 м
[Cu med, cong Ci sp]
+31.6 +18.9 47 +37 +39 очень
душно
1015.6 1014.7
18 16.09 В 5 10 км 5/1 1000 м
[Cu med, cong Ci sp]
+27.7 +20.5 65 +34 +34 очень
душно
1015.9 1015.0 +32.5
21 16.09 В 2 10 км 5/1 1000 м
[Cu med, cong Ci sp]
+26.0 +21.7 77 +33 +33 очень
душно
1016.9 1016.0
03 17.09 СЗ 1 10 км 3/1 1000 м
[Cu med, cong Ac cast]
+23.4 +21.1 87 +31 +31 очень
душно
1016.0 1015.1
06 17.09 штиль 0 10 км 3/1 1000 м
[Cu med, cong Ci sp]
+24.0 +21.1 84 +30 +31 очень
душно
1016.2 1015.3 +22.4
12 17.09 СВ 3 10 км 3/1 1000 м
[Cu med, cong Ci sp]
+31.4 +20.0 51 +38 +49 очень
душно
1016.0 1015.1
15 17.09 СВ 3 10 км 3/1 1000 м
[Cu med, cong Ci sp]
+31.4 +20.7 53 +38 +42 очень
душно
1014.3 1013.4
18 17.09 В 2 10 км 4/4 1000 м
[Cu med, cong Ci sp]
+26.7 +21.7 74 +34 +34 очень
душно
1014.7 1013.8 +32.4
21 17.09 ЮВ 2-4
{6}
10 км 4/4 1000 м
[Cu med, cong Ci sp]
+27.0 +22.8 78 +36 +36 очень
душно
1015.2 1014.3
00 18.09 В 1-2
{6}
н/о н/о +25.1 +23.3 90 +34 +34 очень
душно
1014.8 1013.9
03 18.09 СЗ 4 10 км 4/4 800 м
[Cu med, cong]
+25.3 +21.4 79 +32 +32 очень
душно
1015.5 1014.6
06 18.09 В 1 10 км 4/4 800 м
[Cu med, cong]
+24.3 +22.0 87 +31 +32 очень
душно
1014.6 1013.7 +24.1
09 18.09 ЮЗ 2 8000 м 9/4 600 м
[Cu med, cong Ac cast Ci sp]
+27.9 +21.2 67 +35 +39 очень
душно
1016.2 1015.3
12 18.09 Ю 2 10 км 9/3 800 м
[Cu med, cong Ac cast Ci sp]
+31.8 +20.1 50 +38 +44 очень
душно
1014.8 1013.9
15 18.09 СВ 3 10 км 3/3 1000 м
[Cu med, cong]
+31.6 +22.6 59 +41 +44 опасность
перегрева
1013.8 1012.9
18 18.09 С 2 8000 м 4/3 1000 м
[Cu med, cong Ac cast]
+26.0 +23.5 86 +35 +35 очень
душно
1014.5 1013.6 +32.2
21 18.09 СВ 2 7000 м 3/3 1000 м
[Cu med, cong]
+25.8 +24.4 92 +36 +36 очень
душно
1015.4 1014.5
00 19.09 С 2 7000 м 1/1 800 м
[Cu hum]
+25.1 +23.2 89 +34 +34 очень
душно
1015.1 1014.2
03 19.09 ЮЗ 2-3
{3}
8000 м 3/3 700 м
[Cu hum]
+24.5 +17.2 64 +28 +28 душно 1014.3 1013.4
06 19.09 ЮВ 2 10 км 5/3 900 м
[Cu hum Ac lent]
+24.9 +16.9 61 +29 +29 душно 1014.8 1013.9 +24.2
09 19.09 Ю 3 10 км 3/0
[Ac lent Ci sp]
+30.7 +14.8 38 +33 +39 душно 1015.0 1014.1
12 19.09 С 2 10 км 3/0
[Ac lent Ci sp]
+33.0 +16.4 37 +36 +47 очень
душно
1014.8 1013.9
15 19.09 С 6 10 км 6/1 1200 м
[St Ac lent Ci sp]
+29.3 +19.9 57 +36 +37 очень
душно
1014.4 1013.5
18 19.09 С 4-6
{11}
10 км 5/1 1200 м
[St Ac lent Ci sp]
+25.6 +22.3 82 +33 +33 очень
душно
1015.3 1014.4 +34.8
21 19.09 С 2 10 км 8/6 600 м
[Cu Sc Ac lent]
+24.3 +22.0 87 +31 +31 очень
душно
1017.3 1016.4
00 20.09 СЗ 2 10 км 5/4 600 м
[Cu Sc Ac lent]
+23.8 +21.3 86 +30 +30 очень
душно
1017.2 1016.3
03 20.09 СВ 2 8000 м 8/8 600 м
[Cb cap Ac lent]
+23.5 +21.6 89 +30 +30 очень
душно
1015.5 1014.6
06 20.09 СЗ 3 5000 м {гроза, дождь} 9/9 700 м
[Cb cap]
+23.5 +22.8 96 +31 +31 очень
душно
1016.4 1015.5 +22.4 0.6
09 20.09 СВ 3 10 км {гроза, дождь} 8/8 600 м
[Cu Sc Ac cast]
+27.5 +22.0 72 +36 +37 очень
душно
1017.8 1016.9
12 20.09 СВ 4 10 км 8/8 600 м
[Cu Sc Ci sp]
+30.0 +21.1 59 +38 +39 очень
душно
1016.7 1015.8
15 20.09 СВ 5 10 км 8/8 600 м
[Cu Sc Ci sp]
+29.3 +21.0 61 +37 +37 очень
душно
1016.4 1015.5
18 20.09 В 3 10 км 9/3 800 м
[Cu med, cong Ac cast Ci sp]
+27.4 +20.5 66 +34 +34 очень
душно
1016.7 1015.8 +30.3

 

Местоположение метеостанции Тунис (Тунис): широта 36.83 долгота 10.23 высота над уровнем моря 4 м.

В архиве по умолчанию представлена погода в Тунисе за последнюю неделю. Архивные данные за месяц целиком и за предыдущие месяцы, начиная с января 2011 года, Вы можете получить, выбрав интересующий диапазон дат из раскрывающегося списка и нажав кнопку "Ввод!".


*Определитесь, кто Вы:
робот инопланетянин человек

Внимание! Время в таблицах - всемирное. Для получения местного времени необходимо прибавить поправку, которая равна 1 ч.

Смотрите также архив погоды в соседних городах и на ближайших метеорологических станциях:

Погода в Могхране (Тунис) (46 км)
Погода в Набеле (Тунис) (58 км)
Погода в Бизерте (Тунис) (60 км)
Погода в Келибии (Тунис) (76 км)
Погода в Аэропорту Анфида Аммаме (Тунис) (86 км)
Погода в Бее (Тунис) (94 км)
Погода в Силиане (Тунис) (114 км)
Погода в Кайруане (Тунис) (130 км)
Погода в Табарке (Тунис) (132 км)
Погода в Джендубе (Тунис) (133 км)

Пояснения к столбцам:

Ветер - указаны скорость ветра в м/с - средняя за 10 мин, порывы в срок и между сроками (в фигурных скобках) и направление, откуда дует ветер: С - северный, СВ - северо-восточный, В - восточный, ЮВ - юго-восточный, Ю - южный, ЮЗ - юго-западный, З - западный, СЗ - северо-западный.
Видимость - горизонтальная дальность видимости в метрах или километрах. При видимости от 1 до 10 км при отсутствии осадков обычно наблюдается дымка, при ухудшении видимости до 1 км и менее - туман. В сухую погоду видимость может ухудшаться дымом, пылью или мглою.
Явления - указаны атмосферные явления, наблюдавшиеся в срок или в последний час перед сроком; фигурными скобками обозначены явления, наблюдавшиеся между сроками (за 1-3 часа до срока); квадратными скобками обозначены град или гололедные отложения с указанием их диаметра в мм.
Облачность - указаны через наклонную черту общая и нижняя облачность в баллах и высота нижней границы облаков в метрах; квадратными скобками обозначены формы облаков: Ci - перистые, Cs - перисто-слоистые, Cc - перисто-кучевые, Ac - высококучевые, As - высокослоистые, Sc - слоисто-кучевые, Ns - слоисто-дождевые, Cu - кучевые, Cb - кучево-дождевые. Подробнее классификацию облаков см. в Атласе облаков (PDF).
T - Температура воздуха - температура, измеренная на высоте 2 м над землей.
Td - Температура точки росы - температура, при понижении до которой содержащийся в воздухе водяной пар достигнет насыщения.
f - Относительная влажность воздуха - влажноcть воздуха, измеренная на высоте 2 м над землей.
Te - Эффективная температура - температура, которую ощущает одетый по сезону человек в тени. Характеристика душности погоды. При расчете учитывается влияние влажности воздуха и скорости ветра на теплоощущения человека.
Tes - Эффективная температура на солнце - температура, которую ощущает человек, с поправкой на солнечный нагрев. Характеристика знойности погоды. Зависит от высоты солнца над горизонтом, облачности и скорости ветра. Ночью, в пасмурную погоду, а также при ветре 12 м/с и более поправка равна нулю.
P - Атмосферное давление - приведенное к уровню моря атмосферное давление.
Po - Атмосферное давление - измеренное на уровне метеостанции атмосферное давление.
Tmin - Минимальная температура - минимум температуры воздуха на высоте 2 м над землей.
Tmax - Максимальная температура - максимум температуры воздуха на высоте 2 м над землей.
R - Количество осадков - Количество выпавших осадков за период времени, мм. При наведении курсора мыши на число - период времени, за который выпало указанное количество осадков.
R24 - Количество осадков - Количество выпавших осадков за 24 часа, мм.
S - Снежный покров - Высота снежного покрова, см. При наведении курсора мыши на число - состояние снежного покрова и степень покрытия местности в баллах.